• In Hungary
  • List of Countries
  • For 7 days
  • Water Temperature
  • Satellite Maps
  • Weather Map
  • News
  • Weather Widgets
  • user-avatar
    Login

    Hourly Weather SanFrancisco

    Today, 19 February, Monday

    Time Temperature Precipitation Wind Pressure Humidity
    00:00 +26°C° 0 mm 8 mps 759 mmHg 64%
    01:00 +26°C° 0 mm 7 mps 759 mmHg 66%
    02:00 +26°C° 0 mm 7 mps 759 mmHg 68%
    03:00 +24°C° 0 mm 7 mps 759 mmHg 69%
    04:00 +24°C° 0 mm 6 mps 759 mmHg 70%
    05:00 +24°C° 0 mm 6 mps 759 mmHg 69%
    06:00 +26°C° 0 mm 7 mps 759 mmHg 69%
    07:00 +26°C° 0 mm 7 mps 760 mmHg 68%
    08:00 +28°C° 0 mm 7 mps 760 mmHg 59%
    09:00 +32°C° 0 mm 7 mps 760 mmHg 49%
    10:00 +34°C° 0 mm 7 mps 760 mmHg 40%
    11:00 +35°C° 0 mm 8 mps 760 mmHg 38%
    12:00 +37°C° 0 mm 8 mps 759 mmHg 36%
    13:00 +38°C° 0 mm 8 mps 758 mmHg 34%
    14:00 +37°C° 0 mm 8 mps 758 mmHg 35%
    15:00 +37°C° 0 mm 9 mps 757 mmHg 35%
    16:00 +37°C° 0 mm 9 mps 757 mmHg 36%
    17:00 +34°C° 0 mm 10 mps 757 mmHg 42%
    18:00 +32°C° 0 mm 10 mps 758 mmHg 49%
    19:00 +29°C° 0 mm 10 mps 758 mmHg 56%
    20:00 +29°C° 0 mm 10 mps 758 mmHg 59%
    21:00 +28°C° 0 mm 9 mps 759 mmHg 62%
    22:00 +28°C° 0 mm 9 mps 760 mmHg 65%
    23:00 +27°C° 0 mm 9 mps 759 mmHg 65%

    Tomorrow, 20 February, Tuesday

    Time Temperature Precipitation Wind Pressure Humidity
    00:00 +27°C° 0 mm 8 mps 759 mmHg 65%
    01:00 +27°C° 0 mm 8 mps 759 mmHg 65%
    02:00 +27°C° 0 mm 8 mps 759 mmHg 66%
    03:00 +26°C° 0 mm 7 mps 759 mmHg 67%
    04:00 +26°C° 0 mm 7 mps 759 mmHg 68%
    05:00 +26°C° 0 mm 7 mps 759 mmHg 68%
    06:00 +26°C° 0 mm 7 mps 760 mmHg 67%
    07:00 +26°C° 0 mm 6 mps 760 mmHg 66%
    08:00 +29°C° 0 mm 7 mps 761 mmHg 56%
    09:00 +32°C° 0 mm 7 mps 761 mmHg 47%
    10:00 +34°C° 0 mm 7 mps 761 mmHg 38%
    11:00 +35°C° 0 mm 7 mps 760 mmHg 38%
    12:00 +35°C° 0 mm 7 mps 760 mmHg 38%
    13:00 +37°C° 0 mm 8 mps 759 mmHg 38%
    14:00 +35°C° 0 mm 8 mps 758 mmHg 39%
    15:00 +35°C° 0 mm 8 mps 758 mmHg 40%
    16:00 +35°C° 0 mm 9 mps 758 mmHg 41%
    17:00 +33°C° 0 mm 9 mps 758 mmHg 46%
    18:00 +32°C° 0 mm 9 mps 759 mmHg 52%
    19:00 +29°C° 0 mm 9 mps 759 mmHg 57%
    20:00 +29°C° 0 mm 9 mps 760 mmHg 60%
    21:00 +28°C° 0 mm 8 mps 760 mmHg 63%
    22:00 +28°C° 0 mm 8 mps 761 mmHg 66%
    23:00 +27°C° 0 mm 8 mps 760 mmHg 67%

    Day after tomorrow, 21 February, Wednesday

    Time Temperature Precipitation Wind Pressure Humidity
    00:00 +27°C° 0 mm 7 mps 760 mmHg 69%
    01:00 +26°C° 0 mm 7 mps 760 mmHg 70%
    02:00 +26°C° 0 mm 6 mps 760 mmHg 71%
    03:00 +26°C° 0 mm 6 mps 760 mmHg 72%
    04:00 +26°C° 0 mm 6 mps 760 mmHg 73%
    05:00 +26°C° 0 mm 6 mps 760 mmHg 72%
    06:00 +26°C° 0 mm 6 mps 760 mmHg 71%
    07:00 +27°C° 0 mm 6 mps 761 mmHg 69%
    08:00 +29°C° 0 mm 6 mps 761 mmHg 60%
    09:00 +32°C° 0 mm 6 mps 761 mmHg 51%
    10:00 +34°C° 0 mm 6 mps 762 mmHg 42%
    11:00 +35°C° 0 mm 6 mps 761 mmHg 41%
    12:00 +35°C° 0 mm 7 mps 760 mmHg 39%
    13:00 +36°C° 0 mm 7 mps 759 mmHg 37%
    14:00 +35°C° 0 mm 7 mps 759 mmHg 38%
    15:00 +35°C° 0 mm 8 mps 758 mmHg 40%
    16:00 +34°C° 0 mm 8 mps 758 mmHg 41%
    17:00 +33°C° 0 mm 8 mps 758 mmHg 45%
    18:00 +32°C° 0 mm 8 mps 759 mmHg 49%
    19:00 +31°C° 0 mm 8 mps 759 mmHg 53%
    20:00 +29°C° 0 mm 8 mps 760 mmHg 56%
    21:00 +28°C° 0 mm 8 mps 760 mmHg 58%
    22:00 +28°C° 0 mm 7 mps 761 mmHg 61%
    23:00 +27°C° 0 mm 7 mps 760 mmHg 64%

    22 February, Thursday

    Time Temperature Precipitation Wind Pressure Humidity
    00:00 +27°C° 0 mm 7 mps 760 mmHg 67%
    01:00 +26°C° 0 mm 7 mps 760 mmHg 70%
    02:00 +26°C° 0 mm 7 mps 760 mmHg 71%
    03:00 +26°C° 0 mm 6 mps 760 mmHg 72%
    04:00 +26°C° 0 mm 6 mps 760 mmHg 73%
    05:00 +26°C° 0 mm 6 mps 760 mmHg 71%
    06:00 +26°C° 0 mm 6 mps 761 mmHg 70%
    07:00 +26°C° 0 mm 6 mps 761 mmHg 69%
    08:00 +29°C° 0 mm 6 mps 761 mmHg 60%
    09:00 +32°C° 0 mm 6 mps 762 mmHg 51%
    10:00 +34°C° 0 mm 6 mps 762 mmHg 41%
    11:00 +35°C° 0 mm 6 mps 761 mmHg 40%
    12:00 +35°C° 0 mm 7 mps 760 mmHg 38%
    13:00 +36°C° 0 mm 7 mps 759 mmHg 37%
    14:00 +35°C° 0 mm 8 mps 759 mmHg 39%
    15:00 +35°C° 0 mm 8 mps 758 mmHg 41%
    16:00 +34°C° 0 mm 9 mps 758 mmHg 43%
    17:00 +33°C° 0 mm 9 mps 758 mmHg 47%
    18:00 +31°C° 0 mm 9 mps 759 mmHg 51%
    19:00 +29°C° 0 mm 9 mps 759 mmHg 55%
    20:00 +29°C° 0 mm 8 mps 760 mmHg 58%
    21:00 +28°C° 0 mm 8 mps 760 mmHg 61%
    22:00 +27°C° 0 mm 7 mps 760 mmHg 64%
    23:00 +27°C° 0 mm 7 mps 760 mmHg 66%

    23 February, Friday

    Time Temperature Precipitation Wind Pressure Humidity
    00:00 +27°C° 0 mm 6 mps 760 mmHg 68%
    01:00 +26°C° 0 mm 6 mps 760 mmHg 70%
    02:00 +26°C° 0 mm 6 mps 759 mmHg 71%
    03:00 +26°C° 0 mm 5 mps 759 mmHg 73%
    04:00 +25°C° 0 mm 5 mps 759 mmHg 74%
    05:00 +26°C° 0 mm 5 mps 759 mmHg 73%
    06:00 +26°C° 0 mm 5 mps 760 mmHg 72%
    07:00 +26°C° 0 mm 5 mps 760 mmHg 71%
    08:00 +28°C° 0 mm 5 mps 760 mmHg 62%
    09:00 +32°C° 0 mm 5 mps 760 mmHg 52%
    10:00 +34°C° 0 mm 5 mps 761 mmHg 43%
    11:00 +34°C° 0 mm 5 mps 760 mmHg 41%
    12:00 +35°C° 0 mm 5 mps 759 mmHg 39%
    13:00 +35°C° 0 mm 6 mps 758 mmHg 38%
    14:00 +35°C° 0 mm 6 mps 758 mmHg 41%
    15:00 +34°C° 0 mm 7 mps 757 mmHg 44%
    16:00 +33°C° 0 mm 7 mps 757 mmHg 47%
    17:00 +32°C° 0 mm 7 mps 757 mmHg 52%
    18:00 +31°C° 0 mm 8 mps 758 mmHg 57%
    19:00 +29°C° 0 mm 8 mps 758 mmHg 62%
    20:00 +28°C° 0 mm 8 mps 759 mmHg 64%
    21:00 +28°C° 0 mm 7 mps 759 mmHg 66%
    22:00 +27°C° 0 mm 7 mps 759 mmHg 68%
    23:00 +27°C° 0 mm 7 mps 759 mmHg 70%

    24 February, Saturday

    Time Temperature Precipitation Wind Pressure Humidity
    00:00 +26°C° 0 mm 6 mps 759 mmHg 71%
    01:00 +26°C° 0 mm 6 mps 759 mmHg 73%
    02:00 +25°C° 0 mm 5 mps 758 mmHg 74%
    03:00 +25°C° 0 mm 5 mps 758 mmHg 76%
    04:00 +25°C° 0 mm 5 mps 758 mmHg 77%
    05:00 +25°C° 0 mm 4 mps 759 mmHg 75%
    06:00 +25°C° 0 mm 4 mps 759 mmHg 73%
    07:00 +26°C° 0 mm 4 mps 759 mmHg 71%
    08:00 +28°C° 0 mm 4 mps 760 mmHg 62%
    09:00 +30°C° 0 mm 4 mps 760 mmHg 52%
    10:00 +34°C° 0 mm 3 mps 760 mmHg 42%
    11:00 +34°C° 0 mm 4 mps 759 mmHg 41%
    12:00 +35°C° 0 mm 5 mps 758 mmHg 40%
    13:00 +35°C° 0 mm 5 mps 757 mmHg 38%
    14:00 +35°C° 0 mm 6 mps 757 mmHg 41%
    15:00 +34°C° 0 mm 6 mps 756 mmHg 43%
    16:00 +34°C° 0 mm 7 mps 756 mmHg 45%
    17:00 +32°C° 0 mm 7 mps 756 mmHg 51%
    18:00 +30°C° 0 mm 7 mps 757 mmHg 56%
    19:00 +29°C° 0 mm 7 mps 757 mmHg 62%
    20:00 +28°C° 0 mm 7 mps 758 mmHg 64%
    21:00 +28°C° 0 mm 7 mps 758 mmHg 66%
    22:00 +27°C° 0 mm 7 mps 759 mmHg 69%
    23:00 +27°C° 0 mm 6 mps 759 mmHg 70%
    Show more